Content
SEND FEEDBACK

Daily
Averages
Monthly
Summary
United States of America

ROCKSPRINGS - NORTHWEST, TEXAS


Home > North America > United States > Texas
Elevation: 686 meters     Latitude: 30 11N     Longitude: 100 22W

WEATHER
 
SELECT A DAY
Number of Records: 230,514;   Date Range: 11/11/04 - 10/22/14
 
SHARE

PRINT THIS DATA

[ ← Previous Day ]
WEATHER ALMANAC - 23 JANUARY, 2013
[ Next Day → ]
[ °F ]   °C
Weather ElementAverageHighLow
Temperature15.4 °C22 °C (3:35 pm)11 °C (1:35 am)
Dewpoint10.4 °C12 °C (9:15 am)7 °C (1:55 am)
Humidity73.2 %94 % (7:55 am)50 % (4:15 pm)
Barometer1025.4 hPa1027.8 hPa (10:35 am)1024.4 hPa (3:55 pm)
Wind Speed13.8 km/h20.4 km/h (11:35 am)
Wind Gust29.6 km/h (11:55 am)
Weather ElementAverage
Visibility16.1 km
Wind DirectionSSE (164.9 °)

Weather ElementTotal
Precipitation---
Heating Degree Days1.8 (Base 18.3)
Growing Degree Days6.5 (Base 10)
Averaged from 67 records on 23 January, 2013
WEATHER CONDITIONS BREAKOUT
WIND DIRECTION BREAKOUT
WEATHER BY HOUR - 23 JANUARY, 2013
[ °F ]   °C
Local TimeTemperatureDewpointHumidityBarometerVisibilityWind DirectionWind SpeedGust SpeedPrecipitationEventsConditions
12:35 AM13 °C8 °C72 %1025.1 hPa16.1 kmSSE (150°)13 km/hClear
12:55 AM12 °C8 °C77 %1025.1 hPa16.1 kmSSE (150°)14.8 km/hClear
1:15 AM12 °C8 °C77 %1025.1 hPa16.1 kmSSE (150°)14.8 km/hClear
1:35 AM11 °C8 °C82 %1025.1 hPa16.1 kmSSE (150°)16.7 km/hClear
1:55 AM11 °C7 °C76 %1025.1 hPa16.1 kmSSE (150°)18.5 km/hClear
2:15 AM11 °C7 °C76 %1025.1 hPa16.1 kmSSE (150°)16.7 km/hClear
2:35 AM11 °C7 °C76 %1025.1 hPa16.1 kmSSE (150°)14.8 km/hClear
2:55 AM11 °C7 °C76 %1025.1 hPa16.1 kmSSE (150°)16.7 km/hClear
3:15 AM11 °C7 °C76 %1025.1 hPa16.1 kmSSE (150°)13 km/hPartly Cloudy
3:35 AM11 °C8 °C82 %1025.1 hPa16.1 kmSSE (150°)16.7 km/hMostly Cloudy
3:55 AM11 °C8 °C82 %1024.7 hPa16.1 kmSSE (160°)16.7 km/hScattered Clouds
4:15 AM11 °C8 °C82 %1024.7 hPa16.1 kmSSE (160°)14.8 km/hScattered Clouds
4:35 AM11 °C8 °C82 %1024.7 hPa16.1 kmSSE (160°)13 km/hMostly Cloudy
4:55 AM11 °C8 °C82 %1024.7 hPa16.1 kmSSE (150°)11.1 km/hScattered Clouds
5:15 AM11 °C8 °C82 %1024.7 hPa16.1 kmSSE (150°)13 km/hPartly Cloudy
5:35 AM11 °C8 °C82 %1024.7 hPa16.1 kmSSE (160°)11.1 km/hClear
5:55 AM11 °C8 °C82 %1024.7 hPa16.1 kmSSE (160°)11.1 km/hClear
6:15 AM11 °C8 °C82 %1024.7 hPa16.1 kmSSE (160°)14.8 km/hClear
6:35 AM11 °C9 °C88 %1025.1 hPa16.1 kmSSE (160°)13 km/hClear
6:55 AM11 °C9 °C88 %1025.4 hPa16.1 kmSSE (160°)11.1 km/hPartly Cloudy
7:15 AM11 °C9 °C88 %1025.7 hPa16.1 kmSSE (160°)11.1 km/hMostly Cloudy
7:35 AM11 °C9 °C88 %1025.7 hPa16.1 kmSSE (160°)11.1 km/hScattered Clouds
7:55 AM11 °C10 °C94 %1025.7 hPa16.1 kmSouth (170°)11.1 km/hMostly Cloudy
8:15 AM12 °C11 °C94 %1026.1 hPa14.5 kmSSE (160°)11.1 km/hMostly Cloudy
8:35 AM12 °C11 °C94 %1026.1 hPa16.1 kmSSE (160°)14.8 km/hPartly Cloudy
8:55 AM13 °C11 °C88 %1026.4 hPa16.1 kmSSE (160°)14.8 km/hClear
9:15 AM14 °C12 °C88 %1026.8 hPa16.1 kmSSE (160°)13 km/hClear
9:35 AM15 °C12 °C82 %1026.8 hPa16.1 kmSouth (170°)16.7 km/hClear
9:55 AM16 °C12 °C77 %1027.4 hPa16.1 kmSouth (180°)16.7 km/hClear
10:15 AM16 °C12 °C77 %1027.4 hPa16.1 kmSouth (170°)18.5 km/hClear
10:35 AM17 °C12 °C72 %1027.8 hPaSouth (180°)18.5 km/hClear
10:55 AM17 °C12 °C72 %1027.8 hPa16.1 kmSSE (160°)16.7 km/hClear
11:15 AM18 °C12 °C68 %1027.8 hPa14.5 kmSouth (190°)16.7 km/hMostly Cloudy
11:35 AM18 °C12 °C68 %1027.8 hPa16.1 kmSouth (180°)20.4 km/hMostly Cloudy
11:55 AM19 °C12 °C64 %1027.4 hPa16.1 kmSouth (180°)14.8 km/h29.6 km/hPartly Cloudy
12:15 PM18 °C12 °C68 %1027.1 hPa16.1 kmSouth (190°)16.7 km/hClear
12:35 PM19 °C12 °C64 %1026.4 hPa16.1 kmSouth (190°)18.5 km/hClear
12:55 PM19 °C12 °C64 %1026.1 hPa16.1 kmSouth (190°)18.5 km/h25.9 km/hClear
1:15 PM19 °C12 °C64 %1025.7 hPa16.1 kmSouth (180°)20.4 km/hClear
1:35 PM21 °C12 °C56 %1025.4 hPa16.1 kmSouth (170°)20.4 km/hClear
2:15 PM21 °C12 °C56 %1025.1 hPa16.1 kmSouth (190°)14.8 km/h25.9 km/hClear
2:35 PM21 °C12 °C56 %1025.1 hPa16.1 kmSouth (170°)18.5 km/hClear
3:35 PM22 °C12 °C53 %1024.7 hPa16.1 kmSouth (180°)14.8 km/hClear
3:55 PM22 °C12 °C53 %1024.4 hPa16.1 kmSouth (180°)14.8 km/hClear
4:15 PM22 °C11 °C50 %1024.4 hPa16.1 kmSouth (170°)13 km/hClear
4:35 PM22 °C11 °C50 %1024.4 hPa16.1 kmSouth (190°)14.8 km/hClear
4:55 PM22 °C11 °C50 %1024.4 hPa16.1 kmSouth (180°)13 km/hClear
5:15 PM22 °C11 °C50 %1024.4 hPa16.1 kmSouth (170°)9.3 km/hClear
5:35 PM21 °C11 °C53 %1024.4 hPa16.1 kmSSE (160°)14.8 km/hClear
5:55 PM20 °C11 °C56 %1024.4 hPa16.1 kmSSE (160°)11.1 km/hClear
6:15 PM19 °C11 °C60 %1024.4 hPa16.1 kmSSE (160°)11.1 km/hClear
6:35 PM18 °C11 °C64 %1024.4 hPa16.1 kmSSE (160°)9.3 km/hClear
6:55 PM17 °C11 °C68 %1024.4 hPa16.1 kmSSE (160°)11.1 km/hClear
7:15 PM16 °C11 °C72 %1024.4 hPa16.1 kmSSE (160°)9.3 km/hClear
7:35 PM16 °C11 °C72 %1024.4 hPa16.1 kmSSE (160°)11.1 km/hClear
7:55 PM17 °C11 °C68 %1024.7 hPa16.1 kmSSE (160°)9.3 km/hClear
8:15 PM16 °C11 °C72 %1024.7 hPa16.1 kmSSE (150°)13 km/hClear
8:35 PM16 °C11 °C72 %1024.7 hPa16.1 kmSSE (150°)11.1 km/hClear
8:55 PM16 °C12 °C77 %1025.1 hPa16.1 kmSSE (160°)9.3 km/hClear
9:15 PM16 °C12 °C77 %1025.1 hPa16.1 kmSSE (160°)11.1 km/hClear
9:35 PM16 °C12 °C77 %1025.1 hPa16.1 kmSouth (170°)11.1 km/hClear
9:55 PM16 °C12 °C77 %1025.1 hPa16.1 kmSouth (170°)11.1 km/hClear
10:15 PM16 °C12 °C77 %1025.4 hPa16.1 kmSouth (170°)11.1 km/hClear
10:55 PM16 °C12 °C77 %1025.4 hPa16.1 kmSouth (170°)9.3 km/hClear
11:15 PM16 °C12 °C77 %1025.4 hPa16.1 kmSouth (170°)11.1 km/hClear
11:35 PM16 °C12 °C77 %1025.7 hPa16.1 kmSouth (170°)11.1 km/hClear
11:55 PM15 °C12 °C82 %1025.4 hPa16.1 kmSSE (160°)11.1 km/hClear
Hourly data recorded from KECU, located 0 kilometers away from Rocksprings - Northwest, Texas







STORIES FROM OUR PARTNERS